Weather in Amol

Iran     36°27′57″N   52°21′13″E
temp.,
°C
wind,
m/s
gust,
m/s
humid.,
%
clouds,
%
prec.,
mm/h
press.,
hPa
HPBL,
m
13 may, thu
thu1301:30+18ene2275100 0.0 101347
04:30+16nw229252 0.0 101536
07:30+18se11805 0.0 1016141
10:30+22n31645 0.0 1015622
13:30+24nnw426265 0.1 1015786
16:30+22n426992 0.2 1015507
19:30+20nne23765 0.0 1014114
22:30+17w118657 0.0 101625
14 may, fri
fri1401:30+17e118553 0.0 101514
04:30+16ssw018994 0.0 101512
07:30+18ese0080100 0.0 1017100
10:30+23n2162100 0.0 1016476
13:30+23nnw4265100 0.0 1016584
16:30+23nnw3366100 0.0 1016495
19:30+20e2276100 0.0 101573
22:30+19sw018075 0.0 101411
15 may, sat
sat1501:30+18sse118050 0.0 101411
04:30+18s118372 0.0 101511
07:30+20ene117262 0.0 101582
10:30+24nne215775 0.0 1015687
13:30+26nnw425494 0.1 1014976
16:30+24nnw3362100 0.3 1014519
19:30+21ene1173100 0.4 101430
22:30+20wnw117296 0.4 101411
16 may, sun
sun1601:30+20ese116599 0.0 101311
04:30+19sw006693 0.0 101311
07:30+21sse006045 0.0 101478
10:30+26n22491 0.0 1013729
13:30+27n53490 0.0 1013964
16:30+25n32520 0.0 1012695
19:30+22nne11610 0.1 101232
22:30+20se22610 0.1 101111
17 may, mon
mon1701:30+20ese22610 0.0 101012
04:30+19se12590 0.0 101011
07:30+22e11530 0.0 101185
10:30+27ne22410 0.0 1010549
13:30+31nne44350 0.0 1009806
16:30+29n32373 0.0 1009477
19:30+24e22505 0.0 100836
22:30+22nw015320 0.0 100811